Regional Weather Roundup
Issued by NWS

Home | Current Version | Previous Version | Text Only | Print | Product List | Glossary Off
Versions: 1 2 3 4 5 6 7 8 9 10 11 12 13 14 15 16 17 18 19 20 21 22 23 24 25 26 27 28 29 30 31 32 33 34 35 36 37 38 39 40 41 42 43 44 45 46 47 48 49 50

761
ASUS43 KFSD 241602
RWRSD

WEATHER ROUNDUP FOR SOUTH DAKOTA
NATIONAL WEATHER SERVICE SIOUX FALLS SD
1100 AM CDT MON APR 24 2017

NOTE: "FAIR" INDICATES FEW OR NO CLOUDS BELOW 12,000 FEET WITH NO
SIGNIFICANT WEATHER AND/OR OBSTRUCTIONS TO VISIBILITY.


SDZ001>005-009-010-012>017-241700-
NORTHWEST AND NORTH CENTRAL SOUTH DAKOTA

CITY           SKY/WX    TMP DP  RH WIND       PRES   REMARKS
BUFFALO          N/A     43  39  86 NW10      29.56F
FAITH            N/A     36  35  96 N18       29.61F
MOBRIDGE       CLOUDY    39  34  82 N15       29.56R
$$

SDZ012>016-024>037-041>051-057-063-072>074-241700-
SOUTHWEST AND SOUTH CENTRAL SOUTH DAKOTA

CITY           SKY/WX    TMP DP  RH WIND       PRES   REMARKS
RAPID CTY ARPT CLOUDY    50  42  74 N18       29.62R
PIERRE         CLOUDY    40  37  89 NW21      29.55S
CUSTER         CLOUDY    51  27  39 N6        29.62S
ELLSWORTH AFB  CLOUDY    47  47  98 N14G21    29.61
PHILIP         CLOUDY    45  37  73 NW20G26   29.60F
PINE RIDGE     CLOUDY    48  42  80 E3        29.64S
SPEARFISH      PTSUNNY   48  45  87 NW15      29.64S
WINNER         LGT RAIN  46  39  76 W14       29.58R
$$

SDZ004>011-016>023-039-040-241700-
NORTHEAST SOUTH DAKOTA

CITY           SKY/WX    TMP DP  RH WIND       PRES   REMARKS
ABERDEEN       PTSUNNY   53  40  61 NW15      29.53S
WATERTOWN      CLOUDY    58  38  47 S25G35    29.53F
BROOKINGS      CLOUDY    57  38  48 S26G33    29.57S
SISSETON         N/A     63  40  42 SW17      29.51F
$$

SDZ017-020-022-023-036>040-048>070-241700-
SOUTHEAST SOUTH DAKOTA

CITY           SKY/WX    TMP DP  RH WIND       PRES   REMARKS
SIOUX FALLS    CLOUDY    57  40  52 S24G31    29.58F
HURON          MOSUNNY   62  40  44 S16G28    29.51F
CHAMBERLAIN    CLOUDY    53  44  70 SW14      29.55S
MITCHELL       CLOUDY    60  39  45 S20G30    29.54F
YANKTON        CLOUDY    54  37  54 S22G29    29.58S
$$

ABBREVIATIONS USED IN REMARKS
   TC - TEMPERATURE IN CELSIUS
  WCI - WIND CHILL INDEX
   HX - HEAT INDEX
  VSB - VISIBILITY





USA.gov is the U.S. government's official web portal to all federal, state and local government web resources and services.